Terminal Aerodrome Forecast
Issued by NWS

Home | Current Version | Previous Version | Text Only | Print | Product List | Glossary On
Versions: 1 2 3 4 5 6 7 8 9 10 11 12 13
000
FTUS42 TJSJ 281120
TAFJPS
TAF
TJPS 281120Z 2812/2912 09005KT P6SM VCSH SCT020 BKN040
     FM281400 15010KT P6SM VCSH FEW030 BKN060
     FM282200 VRB04KT P6SM VCSH FEW030 BKN060
      AMD NOT SKED TIL 290300=

USA.gov is the U.S. government's official web portal to all federal, state and local government web resources and services.